sat.trackr.live / text

‹ back to catalog

YAOGAN-41

NORAD 58582 · 2023-197A

PAYLOAD ACTIVE UNKNOWN

§ Identity

Operator
Country
PRC
Launch date
2023-12-15
Launch site
WSC
Launch vehicle
Mass (kg)
RCS (m²)

Purposes: comms

External: N2YO · Heavens-Above · Gunter

§ Orbital elements

Epoch: 2026-05-25T00:54:20.932128Z

Period
1,436.11 min
Inclination
3.1702°
Eccentricity
0.0013536
Mean motion
1.00271172 rev/d
Perigee alt
35,729.7 km
Apogee alt
35,843.8 km
Semi-major
42,164.9 km
B*
0.0000e+0
RAAN
312.8065°
Arg perigee
188.7620°
Mean anomaly
237.8500°
Rev number
909

§ Raw data

YAOGAN-411 58582U 23197A   26145.03774227 -.00000369  00000+0  00000+0 0  99972 58582   3.1702 312.8065 0013536 188.7620 237.8500  1.00271172  9092

JSON: /api/v1/satellites/58582 · /tle

For live sub-satellite position, see the globe view (requires WebGL).

§ Visibility from observer

Set your observer location to see the next 7 days of passes ≥ 10°. The values pass through the URL so the page stays shareable.

No JS? Fill the form by hand. The geolocation button needs JavaScript.